AFL740 ULWC-ULPB

Flight info

Callsign AFL740
Flight time 0h 40m
Altitude 280
Route LUSEB T785 PEMEM
Aircraft A320/M-VGDW/C

Departure

Time 2026-05-07 18:01
Airport Cherepovets Airport (ULWC)

Arrival

Time 2026-05-07 18:42
Airport Petrozavodsk Airport (ULPB)
Time Latitude Longitude Altitude Speed Heading
2026-05-07 17:37 59.27984 38.02032 385 ft 0 kts 311°
2026-05-07 17:56 59.27993 38.02011 385 ft 3 kts 306°
2026-05-07 17:56 59.27992 38.01976 384 ft 4 kts 265°
2026-05-07 17:56 59.27959 38.01954 384 ft 8 kts 148°
2026-05-07 17:56 59.27928 38.02029 384 ft 6 kts 127°
2026-05-07 17:57 59.27902 38.02086 384 ft 5 kts 133°
2026-05-07 17:57 59.27877 38.02138 384 ft 8 kts 133°
2026-05-07 17:57 59.27813 38.02215 382 ft 15 kts 185°
2026-05-07 17:57 59.27717 38.02073 384 ft 20 kts 221°
2026-05-07 17:58 59.27599 38.01867 383 ft 26 kts 222°
2026-05-07 17:58 59.27452 38.01607 380 ft 31 kts 222°
2026-05-07 17:58 59.27282 38.01310 380 ft 33 kts 221°
2026-05-07 17:58 59.27110 38.01005 380 ft 34 kts 222°
2026-05-07 17:59 59.26932 38.00690 378 ft 35 kts 222°
2026-05-07 17:59 59.26822 38.00439 378 ft 18 kts 249°
2026-05-07 17:59 59.26785 38.00421 379 ft 6 kts 88°
2026-05-07 17:59 59.26810 38.00474 378 ft 5 kts 43°
2026-05-07 18:00 59.26837 38.00522 378 ft 5 kts 43°
2026-05-07 18:00 59.26881 38.00601 377 ft 18 kts 42°
2026-05-07 18:00 59.27157 38.01091 381 ft 89 kts 42°
2026-05-07 18:00 59.27770 38.02166 389 ft 145 kts 42°
2026-05-07 18:01 59.28519 38.03522 963 ft 143 kts 45°
2026-05-07 18:01 59.29237 38.04865 1696 ft 142 kts 46°
2026-05-07 18:01 59.29973 38.06160 2395 ft 142 kts 46°
2026-05-07 18:01 59.30712 38.07440 3039 ft 142 kts 47°
2026-05-07 18:02 59.32256 38.10123 3971 ft 165 kts 45°
2026-05-07 18:02 59.33325 38.11214 4256 ft 193 kts
2026-05-07 18:02 59.34682 38.10431 4552 ft 223 kts 322°
2026-05-07 18:03 59.35851 38.08191 4964 ft 248 kts 312°
2026-05-07 18:03 59.37029 38.05504 5473 ft 268 kts 308°
2026-05-07 18:03 59.38223 38.02672 6427 ft 270 kts 306°
2026-05-07 18:03 59.39424 37.99849 7438 ft 269 kts 306°
2026-05-07 18:04 59.40643 37.97041 8399 ft 271 kts 307°
2026-05-07 18:04 59.41881 37.94241 9346 ft 273 kts 306°
2026-05-07 18:04 59.43142 37.91423 10229 ft 277 kts 307°
2026-05-07 18:04 59.44463 37.88468 10564 ft 300 kts 307°
2026-05-07 18:05 59.45894 37.85264 10832 ft 323 kts 307°
2026-05-07 18:05 59.47413 37.81880 11367 ft 334 kts 307°
2026-05-07 18:05 59.48965 37.78439 12100 ft 338 kts 307°
2026-05-07 18:05 59.50522 37.74992 12869 ft 342 kts 307°
2026-05-07 18:06 59.52107 37.71473 13634 ft 345 kts 307°
2026-05-07 18:06 59.53703 37.67920 14412 ft 346 kts 307°
2026-05-07 18:06 59.55302 37.64347 15100 ft 349 kts 306°
2026-05-07 18:06 59.56912 37.60732 15751 ft 353 kts 306°
2026-05-07 18:07 59.58538 37.57076 16390 ft 357 kts 305°
2026-05-07 18:07 59.60192 37.53370 17018 ft 361 kts 307°
2026-05-07 18:07 59.62085 37.49989 17624 ft 372 kts 315°
2026-05-07 18:07 59.64146 37.46848 18227 ft 376 kts 315°
2026-05-07 18:08 59.66231 37.43664 18752 ft 380 kts 315°
2026-05-07 18:08 59.68329 37.40454 19279 ft 383 kts 315°
2026-05-07 18:08 59.70447 37.37206 19823 ft 385 kts 315°
2026-05-07 18:08 59.72572 37.33943 20365 ft 388 kts 314°
2026-05-07 18:09 59.74685 37.30687 20890 ft 390 kts 314°
2026-05-07 18:09 59.76827 37.27375 21499 ft 391 kts 314°
2026-05-07 18:09 59.78976 37.24050 22058 ft 392 kts 314°
2026-05-07 18:09 59.81134 37.20706 22556 ft 395 kts 314°
2026-05-07 18:10 59.83309 37.17324 23027 ft 398 kts 313°
2026-05-07 18:10 59.85499 37.13909 23490 ft 401 kts 313°
2026-05-07 18:10 59.87702 37.10469 23896 ft 404 kts 313°
2026-05-07 18:10 59.89924 37.07003 24302 ft 407 kts 313°
2026-05-07 18:11 59.92158 37.03516 24697 ft 408 kts 313°
2026-05-07 18:11 59.93645 37.01193 24961 ft 410 kts 313°
2026-05-07 18:11 59.96652 36.96490 25487 ft 412 kts 313°
2026-05-07 18:11 59.98913 36.92941 25869 ft 414 kts 313°
2026-05-07 18:12 60.01179 36.89370 26307 ft 416 kts 312°
2026-05-07 18:12 60.03453 36.85773 26674 ft 419 kts 312°
2026-05-07 18:12 60.05745 36.82147 27044 ft 421 kts 312°
2026-05-07 18:12 60.08035 36.78592 27393 ft 426 kts 315°
2026-05-07 18:13 60.10609 36.75480 27735 ft 439 kts 324°
2026-05-07 18:13 60.13479 36.73105 27998 ft 453 kts 333°
2026-05-07 18:13 60.16565 36.71579 28058 ft 458 kts 339°
2026-05-07 18:14 60.22779 36.69021 28048 ft 455 kts 339°
2026-05-07 18:14 60.28980 36.66422 28049 ft 455 kts 338°
2026-05-07 18:15 60.35172 36.63777 28065 ft 455 kts 338°
2026-05-07 18:15 60.41363 36.61128 28049 ft 455 kts 338°
2026-05-07 18:16 60.47556 36.58488 28044 ft 455 kts 338°
2026-05-07 18:16 60.53708 36.55859 28041 ft 454 kts 338°
2026-05-07 18:17 60.59890 36.53190 28075 ft 454 kts 338°
2026-05-07 18:17 60.66066 36.50514 28063 ft 453 kts 338°
2026-05-07 18:18 60.72238 36.47837 28060 ft 453 kts 338°
2026-05-07 18:18 60.78416 36.45142 28075 ft 453 kts 338°
2026-05-07 18:19 60.84587 36.42423 28053 ft 453 kts 338°
2026-05-07 18:19 60.90620 36.39317 28048 ft 440 kts 328°
2026-05-07 18:19 60.93339 36.36635 28045 ft 427 kts 319°
2026-05-07 18:20 60.95746 36.33202 28043 ft 415 kts 310°
2026-05-07 18:20 60.99531 36.24664 28046 ft 395 kts 294°
2026-05-07 18:21 61.01853 36.14698 28044 ft 382 kts 283°
2026-05-07 18:21 61.03729 36.04438 28045 ft 382 kts 283°
2026-05-07 18:22 61.05587 35.94222 28041 ft 382 kts 283°
2026-05-07 18:22 61.07451 35.83940 28041 ft 383 kts 283°
2026-05-07 18:23 61.09310 35.73612 28043 ft 383 kts 283°
2026-05-07 18:23 61.11161 35.63298 28045 ft 383 kts 283°
2026-05-07 18:24 61.13014 35.52967 28044 ft 383 kts 283°
2026-05-07 18:24 61.14867 35.42641 27929 ft 382 kts 283°
2026-05-07 18:24 61.15787 35.37505 27236 ft 379 kts 283°
2026-05-07 18:25 61.16694 35.32422 26643 ft 373 kts 283°
2026-05-07 18:25 61.17584 35.27408 26032 ft 368 kts 283°
2026-05-07 18:25 61.18458 35.22455 25442 ft 364 kts 283°
2026-05-07 18:25 61.19317 35.17556 24867 ft 360 kts 283°
2026-05-07 18:26 61.20165 35.12700 24302 ft 356 kts 284°
2026-05-07 18:26 61.20994 35.07947 23745 ft 353 kts 284°
2026-05-07 18:26 61.21823 35.03192 23130 ft 349 kts 284°
2026-05-07 18:26 61.22643 34.98481 22600 ft 346 kts 284°
2026-05-07 18:27 61.23456 34.93795 22089 ft 344 kts 284°
2026-05-07 18:27 61.24264 34.89114 21590 ft 343 kts 284°
2026-05-07 18:27 61.25067 34.84462 21104 ft 343 kts 284°
2026-05-07 18:27 61.25608 34.81385 20816 ft 343 kts 287°
2026-05-07 18:28 61.27229 34.75606 20159 ft 352 kts 303°
2026-05-07 18:28 61.28977 34.71979 19639 ft 360 kts 315°
2026-05-07 18:28 61.31134 34.69207 19084 ft 368 kts 329°
2026-05-07 18:28 61.33490 34.67079 18539 ft 369 kts 331°
2026-05-07 18:29 61.35844 34.64970 17940 ft 368 kts 332°
2026-05-07 18:29 61.38157 34.62892 17407 ft 366 kts 332°
2026-05-07 18:29 61.40490 34.60786 16851 ft 364 kts 332°
2026-05-07 18:29 61.42808 34.58680 16293 ft 363 kts 332°
2026-05-07 18:30 61.45122 34.56564 15724 ft 362 kts 333°
2026-05-07 18:30 61.47427 34.54445 15147 ft 362 kts 333°
2026-05-07 18:30 61.49733 34.52319 14554 ft 362 kts 334°
2026-05-07 18:30 61.52046 34.50192 13954 ft 362 kts 334°
2026-05-07 18:31 61.54370 34.48149 13285 ft 363 kts 339°
2026-05-07 18:31 61.56837 34.46962 12674 ft 364 kts 352°
2026-05-07 18:31 61.59368 34.46858 12038 ft 365 kts
2026-05-07 18:31 61.61906 34.47061 11389 ft 363 kts
2026-05-07 18:32 61.64397 34.47244 10812 ft 361 kts
2026-05-07 18:32 61.66855 34.47412 10663 ft 345 kts
2026-05-07 18:32 61.69206 34.47569 10535 ft 331 kts
2026-05-07 18:32 61.71461 34.47725 10407 ft 318 kts
2026-05-07 18:33 61.73630 34.47880 10279 ft 306 kts
2026-05-07 18:33 61.75727 34.48030 10124 ft 297 kts
2026-05-07 18:33 61.77771 34.48175 9919 ft 291 kts
2026-05-07 18:33 61.79803 34.48315 9672 ft 292 kts
2026-05-07 18:34 61.81840 34.48454 9253 ft 291 kts
2026-05-07 18:34 61.83850 34.48590 8861 ft 286 kts
2026-05-07 18:34 61.85833 34.48725 8176 ft 283 kts
2026-05-07 18:34 61.87788 34.48864 7519 ft 279 kts
2026-05-07 18:35 61.89689 34.49000 6912 ft 274 kts
2026-05-07 18:35 61.91579 34.49136 6265 ft 271 kts
2026-05-07 18:35 61.93456 34.49269 5642 ft 268 kts
2026-05-07 18:35 61.95313 34.49401 5081 ft 266 kts
2026-05-07 18:36 61.97151 34.49535 4472 ft 263 kts
2026-05-07 18:36 61.98988 34.49346 4023 ft 262 kts 346°
2026-05-07 18:36 62.00583 34.47791 3960 ft 246 kts 323°
2026-05-07 18:36 62.01720 34.45302 3907 ft 231 kts 303°
2026-05-07 18:37 62.02407 34.42316 3829 ft 220 kts 293°
2026-05-07 18:37 62.03000 34.39383 3730 ft 211 kts 294°
2026-05-07 18:37 62.03571 34.36560 3638 ft 203 kts 294°
2026-05-07 18:37 62.03914 34.33650 3361 ft 205 kts 269°
2026-05-07 18:38 62.03589 34.30744 3194 ft 201 kts 241°
2026-05-07 18:38 62.02695 34.28530 2991 ft 198 kts 213°
2026-05-07 18:38 62.01478 34.27258 2752 ft 198 kts 201°
2026-05-07 18:38 62.00203 34.26103 2499 ft 198 kts 201°
2026-05-07 18:39 61.98963 34.24975 2217 ft 188 kts 201°
2026-05-07 18:39 61.98182 34.24262 2046 ft 180 kts 201°
2026-05-07 18:39 61.96695 34.22907 1719 ft 167 kts 201°
2026-05-07 18:39 61.95684 34.21986 1516 ft 152 kts 201°
2026-05-07 18:40 61.94745 34.21133 1296 ft 143 kts 201°
2026-05-07 18:40 61.93844 34.20320 1092 ft 139 kts 201°
2026-05-07 18:40 61.92956 34.19508 877 ft 138 kts 202°
2026-05-07 18:40 61.92073 34.18706 686 ft 137 kts 202°
2026-05-07 18:41 61.91206 34.17909 503 ft 136 kts 202°
2026-05-07 18:41 61.90616 34.17382 368 ft 136 kts 202°
2026-05-07 18:41 61.89471 34.16340 145 ft 134 kts 203°
2026-05-07 18:41 61.88707 34.15652 131 ft 97 kts 203°
2026-05-07 18:42 61.88246 34.15238 132 ft 47 kts 203°
2026-05-07 18:42 61.88096 34.15104 132 ft 18 kts 202°
2026-05-07 18:42 61.87977 34.15002 133 ft 19 kts 201°
2026-05-07 18:42 61.87923 34.14989 134 ft 9 kts 160°
2026-05-07 18:43 61.87893 34.15077 135 ft 7 kts 111°
2026-05-07 18:43 61.87875 34.15170 134 ft 6 kts 111°
2026-05-07 18:43 61.87860 34.15251 134 ft 5 kts 111°
2026-05-07 18:43 61.87841 34.15338 134 ft 4 kts 115°
2026-05-07 18:44 61.87825 34.15389 134 ft 7 kts 129°
2026-05-07 18:44 61.87799 34.15472 134 ft 6 kts 117°
2026-05-07 18:44 61.87798 34.15476 134 ft 0 kts 117°